GFSFLT1_850_dewp_201.txt.gz
Dewpoint
-1 -1 -2 4 8 7 8 8 11 12 14 13 13 12 13 12 12 11 9 5 6 4 1 -0 -2 -3 -3 -4 -4 -3 -5 -5
-1 -1 -1 -2 9 9 9 10 12 13 13 13 12 12 12 11 11 10 10 8 4 3 3 1 -2 -3 -5 -4 -3 -2 -1 -3
-2 -2 -1 -2 4 9 10 11 12 13 12 11 12 12 12 11 10 10 10 9 7 4 2 -0 -2 -3 -4 -4 -4 -1 -1 -2
-2 -2 -2 -2 -0 9 9 9 12 12 12 12 12 12 12 11 10 9 9 9 7 4 1 -1 -2 -4 -4 -5 -4 -4 -2 -1
-2 -1 -2 -2 -2 0 5 8 10 12 12 12 11 11 11 11 10 9 9 8 7 5 1 0 -1 -3 -4 -6 -4 -4 -5 -3
-1 -1 -1 -2 -2 -1 6 9 10 10 11 12 11 11 11 11 9 7 7 7 6 5 2 0 1 -2 -4 -6 -4 -3 -5 -6
-0 -1 -1 -1 -1 -1 7 10 11 11 11 12 11 11 11 10 9 6 6 6 6 4 3 -0 1 -0 -3 -6 -7 -5 -5 -4
-1 -1 -1 -0 1 1 7 11 11 12 11 12 11 11 10 10 9 8 6 6 5 5 3 1 0 0 -2 -5 -5 -5 -4 -5
1 1 2 2 2 2 7 11 12 12 12 11 11 11 10 10 9 8 6 6 7 6 4 2 1 1 -1 -4 -4 -5 -5 -6
2 2 3 6 5 5 8 11 11 11 11 11 11 11 11 10 8 7 6 5 5 6 4 4 2 1 -0 -2 -4 -5 -5 -6
3 3 3 3 6 8 9 10 11 11 11 11 11 11 10 10 8 6 6 5 5 5 5 4 3 1 0 -1 -3 -3 -2 -1
5 5 6 6 3 5 9 11 12 11 11 11 11 10 10 10 9 7 6 5 5 4 5 4 3 2 1 -0 -2 -2 -1 -2
7 7 7 8 11 11 12 12 11 11 11 11 11 10 10 9 9 8 6 5 4 4 4 4 4 3 1 1 1 -1 -2 -1
5 6 7 7 8 10 11 11 11 11 11 11 10 10 10 9 8 7 5 4 4 3 3 3 3 3 2 1 0 -1 -2 -3
5 5 7 8 8 8 9 9 10 10 10 10 9 9 9 8 8 7 6 5 4 3 3 2 2 2 1 1 -0 -1 -2 -2
5 4 6 7 7 7 7 7 7 7 7 7 8 8 8 8 7 7 6 5 4 3 2 2 2 2 1 1 0 -1 -1 -3
5 4 5 7 8 7 6 6 6 6 6 6 6 5 5 5 5 5 5 5 4 3 2 2 2 2 1 0 -1 -1 -5 -5
5 5 4 5 5 5 5 5 5 5 5 6 5 5 5 5 5 5 4 4 4 3 3 2 2 1 0 -0 -2 -4 -4 -2
3 3 4 3 3 3 3 3 5 5 4 4 4 4 5 5 4 4 3 3 3 2 2 1 1 0 -0 -1 -2 -2 -2 -2

GFSFLT1_850_dewp_207.txt.gz
Dewpoint
3 3 2 1 1 1 5 9 8 9 13 14 14 13 13 13 13 12 12 12 11 12 12 9 0 -7 -13 -13 -7 -3 -3 -0
2 2 2 1 2 2 4 10 10 13 14 14 13 13 13 13 13 13 11 12 11 11 12 11 3 -3 -10 -13 -6 -3 1 2
2 1 1 1 1 1 4 5 9 11 13 11 12 11 12 13 13 13 12 12 12 12 12 12 7 1 -4 -13 -6 -1 1 2
2 1 0 0 1 1 2 4 8 9 9 13 13 13 13 13 13 13 13 12 11 11 11 11 10 5 2 -10 -10 -4 -2 2
3 2 1 -0 -0 -0 0 1 7 9 11 14 13 12 13 13 12 12 13 12 11 11 10 10 11 7 4 -1 -9 -4 -2 -1
3 2 2 1 0 0 0 0 5 9 12 13 12 13 12 12 12 12 12 12 12 11 11 11 10 7 7 4 -5 -2 -1 -2
3 3 3 2 2 1 3 3 5 9 12 13 13 12 12 12 12 12 12 12 12 11 11 11 10 8 7 6 0 -2 -1 -0
4 4 3 2 2 2 1 5 5 7 12 13 13 13 12 12 12 12 12 12 12 12 11 11 10 9 8 6 3 0 -1 -0
5 7 6 4 2 2 2 5 5 7 10 12 13 13 12 12 12 11 12 11 11 11 11 11 10 10 8 7 5 3 1 -0
1 5 7 8 7 4 4 3 7 7 8 11 13 13 12 12 12 12 11 11 11 11 11 11 10 10 9 8 6 4 3 1
-2 1 4 7 8 8 9 5 9 11 13 13 13 13 12 12 11 11 11 10 11 11 10 10 10 9 9 8 7 5 3 1
-1 -2 1 3 8 9 10 11 11 12 13 13 13 12 12 12 11 11 10 11 11 10 10 10 10 9 9 8 7 4 4 2
-0 -2 -1 2 4 7 10 12 11 12 13 12 12 12 12 11 11 11 10 11 10 10 10 10 9 8 8 7 6 6 4 4
-9 -2 -2 1 4 8 7 10 11 11 12 12 12 11 11 11 11 11 11 11 10 10 9 9 8 8 7 6 7 6 5 5
-3 -5 -1 -1 5 8 9 8 10 11 11 11 11 11 11 11 11 10 10 9 10 9 8 7 8 7 7 6 6 6 5 5
-1 -2 -1 1 3 8 9 9 10 10 10 10 10 10 10 10 10 10 10 9 9 9 8 7 7 7 6 6 6 5 5 5
2 1 1 1 3 7 8 8 8 8 8 10 10 9 9 10 10 10 9 9 9 8 7 7 6 6 6 6 5 5 4 4
1 3 3 2 4 7 8 7 7 8 7 7 7 5 6 7 7 7 8 8 7 6 6 6 6 5 5 5 4 4 4 3
-3 -0 4 4 4 7 7 6 7 7 7 7 7 6 6 6 6 5 5 5 5 5 5 5 5 4 4 4 3 3 3 2

GFSFLT1_850_dewp_210.txt.gz
Dewpoint
3 4 4 3 3 3 3 6 9 9 10 13 13 13 13 13 11 10 13 12 11 11 9 9 9 0 -10 -15 -16 -10 -6 -2
3 3 3 3 3 3 4 7 8 13 14 13 13 13 13 13 11 10 10 11 11 10 9 10 10 6 -6 -13 -16 -12 -2 1
3 3 3 2 2 2 3 5 9 11 14 12 12 11 12 13 13 12 11 11 11 11 12 11 11 9 -2 -11 -13 -6 -1 1
4 3 2 1 1 2 2 3 7 10 10 14 13 13 13 12 12 13 13 12 12 12 12 11 11 11 6 -7 -12 -10 -7 1
3 3 3 2 1 4 3 5 8 10 12 13 13 13 13 13 11 11 12 13 13 13 13 12 11 11 11 3 -8 -12 -9 -5
3 3 4 4 3 1 5 7 8 10 13 14 13 13 13 13 12 12 12 12 13 13 13 13 12 11 12 10 -0 -9 -9 -6
3 4 5 5 5 4 3 2 6 11 13 13 13 13 13 13 12 12 12 12 12 13 13 13 12 11 11 11 7 -0 -7 -7
-0 2 4 5 6 7 5 3 3 6 12 13 13 13 13 12 13 12 12 12 12 12 12 12 12 12 11 11 10 5 -2 -7
-5 -4 -1 2 4 6 8 7 3 6 7 11 13 13 13 12 12 12 12 12 11 11 12 12 12 12 12 11 10 8 4 -4
-9 -8 -6 -4 -1 2 6 8 10 6 7 8 12 13 13 13 13 12 12 11 11 10 11 12 12 12 12 12 11 9 7 5
-6 -8 -10 -7 -5 -1 1 4 9 10 9 9 12 13 13 12 13 12 12 12 11 11 10 11 11 12 11 11 11 8 7 6
-7 -8 -7 -10 -7 -4 1 3 4 10 12 12 12 13 12 12 12 12 12 12 11 10 10 10 10 11 11 11 10 10 8 6
-5 -6 -7 -5 -9 -7 -0 4 7 7 10 12 12 12 12 12 13 13 12 12 11 11 10 11 11 10 9 10 10 9 7 6
-7 -7 -5 -5 -3 -4 -1 3 7 7 9 10 12 12 13 12 12 12 12 12 12 11 10 10 11 9 9 9 9 8 7 7
-7 -7 -7 -6 -3 0 0 2 7 7 8 10 10 10 11 12 12 12 12 11 11 11 10 10 10 9 9 8 7 7 7 6
-8 -7 -4 -4 -1 2 3 4 6 7 7 9 10 9 11 11 12 11 12 12 11 10 10 10 9 9 9 8 7 7 6 6
-4 -4 -1 -2 -2 3 4 6 5 7 7 9 9 9 10 10 10 10 10 11 9 9 9 9 8 8 8 8 7 7 6 6
-4 -2 -1 -2 -5 -1 5 6 6 7 8 7 8 9 9 8 8 8 8 7 7 8 9 9 8 7 7 7 6 6 6 5
-8 -7 -6 -5 -4 -3 4 6 7 7 7 7 7 6 6 5 6 6 6 7 6 6 6 6 6 6 6 6 5 5 5 5

GFSFLT1_850_dewp_213.txt.gz
Dewpoint
4 2 3 3 5 3 3 4 4 7 11 13 13 14 14 14 13 13 13 13 13 13 13 12 8 6 -2 -10 -14 -14 -11 -6
4 3 3 4 4 4 4 4 4 10 13 14 14 13 14 13 14 13 14 13 13 13 13 13 10 8 4 -7 -14 -14 -7 -3
4 4 4 4 4 3 4 4 6 10 12 11 14 14 13 13 13 13 13 14 13 12 13 13 11 9 5 -6 -12 -12 -7 -2
4 4 3 2 2 3 3 3 5 9 12 13 13 13 13 13 13 13 13 13 14 13 13 13 12 10 9 2 -7 -12 -9 -2
4 4 4 3 2 1 5 9 10 10 13 13 13 13 13 12 10 11 12 13 12 13 13 13 12 10 10 9 -1 -10 -12 -7
4 5 5 5 4 3 3 10 12 12 13 13 13 13 13 13 13 12 12 12 12 13 13 13 12 11 11 10 7 -6 -11 -10
-0 0 2 4 5 6 5 3 6 12 13 13 13 13 13 13 12 12 12 12 12 12 12 13 12 11 12 11 11 8 -2 -10
-2 -3 -4 -2 1 4 6 7 5 7 11 12 12 12 12 13 12 12 12 12 12 12 12 12 12 12 12 12 11 11 7 -1
-5 -8 -9 -7 -5 -2 2 6 8 8 8 11 12 12 12 12 12 12 12 12 12 12 12 12 12 12 12 12 12 11 10 6
-8 -9 -10 -9 -8 -6 -3 -0 4 7 10 8 11 12 12 12 12 12 12 12 12 11 12 11 12 12 12 12 12 12 11 9
-6 -9 -9 -8 -8 -8 -6 -2 1 3 7 11 9 11 12 12 12 12 12 12 12 12 11 11 11 11 11 11 11 11 11 10
-6 -10 -10 -8 -7 -7 -7 -4 -0 4 6 9 11 10 12 12 12 12 12 12 12 12 12 11 11 11 11 11 10 11 9 9
-9 -9 -9 -9 -9 -8 -4 -3 -1 1 5 8 10 11 12 11 11 12 12 12 12 12 12 12 11 11 11 11 11 10 9 6
-10 -10 -9 -8 -6 -8 -7 -2 -1 0 5 5 7 10 11 12 12 12 12 12 11 12 11 11 11 11 11 11 11 9 9 9
-6 -4 -5 -3 -4 -3 -3 -0 1 2 3 6 6 8 9 11 12 12 12 12 12 12 12 12 12 11 11 11 11 8 8 8
-5 -6 -5 -3 -6 -6 -4 -3 4 3 3 6 6 7 9 9 9 10 11 12 12 12 12 11 11 11 10 9 9 7 7 7
-7 -7 -8 -7 -5 -4 -6 -6 2 5 4 6 7 8 8 9 10 10 10 10 10 11 10 9 10 10 10 10 9 9 8 8
-7 -7 -7 -7 -4 -3 -3 -4 -1 5 5 5 7 8 8 8 9 8 9 10 9 9 8 8 9 8 8 8 8 7 7 7
-8 -7 -6 -8 -8 -2 -2 -2 -1 5 5 6 7 7 7 7 7 6 7 8 7 7 7 7 7 7 7 8 7 6 5 5

GFSFLT1_850_dewp_216.txt.gz
Dewpoint
3 4 4 4 5 6 9 11 14 13 13 14 14 14 14 13 13 14 14 13 13 13 12 12 9 4 1 3 5 6 6 6
3 4 4 4 4 5 8 10 13 14 14 14 14 13 13 13 13 14 14 14 13 13 13 13 13 8 3 -1 2 6 6 6
4 4 5 5 5 5 6 10 12 14 13 12 12 12 13 13 13 14 13 14 13 13 13 13 13 10 6 1 -0 5 6 6
4 4 5 6 6 7 7 9 11 13 14 13 13 13 13 14 13 13 13 13 13 13 13 13 13 12 11 6 -0 -2 4 6
5 5 6 7 7 4 7 9 11 13 14 13 13 13 13 13 13 13 13 13 13 13 13 12 13 13 12 10 4 -2 -1 -0
6 6 7 7 7 6 3 9 11 12 14 13 13 13 13 13 13 13 13 13 13 13 13 13 13 12 12 12 8 2 -2 -4
4 4 5 5 7 7 5 3 11 13 13 13 12 13 13 13 13 13 13 13 13 12 12 12 13 12 12 12 12 9 3 -2
0 1 2 3 4 6 8 9 8 10 13 13 13 12 13 12 12 13 12 12 12 12 12 12 12 12 13 12 12 12 8 4
-3 -2 -1 -0 1 3 5 7 9 10 10 13 13 12 12 12 13 13 13 13 12 12 12 12 11 12 12 12 12 12 10 7
-4 -4 -2 -1 0 1 -3 2 7 9 11 11 13 13 13 12 12 12 13 13 13 13 12 12 12 12 11 11 12 12 12 10
-4 -4 -3 -2 1 2 -3 -2 2 5 9 11 12 12 13 13 12 12 12 13 12 12 12 12 12 12 12 12 11 11 10 10
-5 -5 -4 -3 -0 1 2 -1 -4 1 7 9 10 11 12 13 13 12 12 12 12 12 12 12 12 11 11 11 12 11 11 11
-5 -5 -4 -2 -1 -0 1 3 2 -0 -0 4 6 9 12 12 12 13 13 12 12 12 12 12 12 12 11 11 11 11 11 11
-4 -4 -4 -4 -2 -1 -0 0 1 5 6 1 5 5 9 11 12 12 11 12 13 12 12 12 12 12 12 11 11 11 11 11
-4 -5 -5 -6 -6 -4 -3 -2 -5 -6 6 4 2 6 6 8 9 12 12 12 12 12 12 12 12 12 12 12 12 11 11 11
-6 -6 -7 -7 -7 -7 -4 -3 -1 -1 3 6 6 6 6 6 8 11 11 11 12 12 12 12 12 12 12 11 11 10 11 10
-8 -8 -8 -7 -7 -7 -9 -3 -1 0 1 5 6 5 5 7 8 9 9 10 10 10 12 12 12 11 11 11 11 10 10 9
-10 -10 -9 -6 -6 -6 -4 -3 -2 0 1 4 6 5 5 6 7 8 8 9 8 10 10 10 10 10 10 10 9 7 7 7
-10 -9 -8 -7 -6 -6 -5 -2 -0 1 1 3 4 5 6 6 5 6 7 7 7 8 9 9 9 9 9 9 8 7 6 6

GFSFLT1_850_dewp_219.txt.gz
Dewpoint
2 3 3 3 4 4 6 11 14 15 15 15 15 15 14 15 14 14 14 13 13 13 13 12 10 7 5 8 8 7 7 7
2 2 3 4 4 4 6 8 12 14 15 15 15 14 15 15 14 14 14 14 14 13 13 12 11 9 6 5 7 7 7 7
2 2 3 3 4 4 5 6 9 13 14 14 15 15 14 15 15 14 14 13 14 13 13 13 12 11 8 6 7 7 7 7
2 3 3 4 4 5 5 5 7 10 13 14 14 15 15 15 14 14 14 14 13 13 13 13 12 12 11 7 6 7 7 7
2 2 3 5 5 6 6 6 6 8 11 13 14 14 14 14 14 14 14 14 13 13 13 13 13 13 12 10 5 5 6 7
5 5 6 6 7 8 8 7 7 7 11 13 14 13 13 13 13 13 14 14 14 13 13 13 13 13 13 12 8 6 6 7
6 6 7 7 8 9 10 8 8 9 10 13 14 13 13 13 13 13 13 13 13 13 13 13 13 13 13 13 12 10 6 6
4 4 4 5 7 8 10 9 8 10 11 13 14 13 13 12 13 12 13 13 12 12 13 13 13 13 13 12 13 12 10 7
1 1 1 2 3 5 7 8 9 9 12 13 14 14 13 13 12 12 12 12 12 12 13 12 13 13 13 13 13 12 11 9
-2 -2 -1 0 2 3 5 6 7 9 11 11 13 13 14 13 13 12 13 13 13 12 12 12 12 12 12 12 12 12 11 11
-4 -4 -3 -2 1 2 4 5 5 6 9 10 11 12 13 13 13 13 12 13 13 12 12 12 12 12 12 12 12 12 12 11
-4 -5 -4 -3 -1 0 2 3 5 6 7 9 10 11 11 12 13 13 13 13 13 13 13 13 13 12 12 12 12 11 11 11
1 1 -1 -4 -4 -1 -0 1 1 4 7 8 8 10 9 11 12 12 13 13 13 13 12 13 13 13 12 12 12 11 11 11
-5 -4 -3 -0 -2 -4 -4 -2 -1 -7 -6 3 5 7 9 8 11 12 12 13 13 13 13 12 12 13 12 12 12 12 11 11
-3 -3 -4 -5 -4 -3 -4 -4 -2 -1 -2 -4 -6 1 4 4 5 8 11 12 12 13 13 13 12 12 12 12 12 12 12 12
-5 -5 -5 -5 -6 -6 -6 -6 -7 -1 -0 -0 0 5 5 2 4 5 5 8 12 13 13 12 12 13 12 12 12 12 12 11
-8 -8 -9 -8 -8 -7 -7 -5 -3 -1 -0 0 1 4 6 7 4 4 6 8 10 11 12 12 12 12 12 12 12 12 12 11
-10 -10 -10 -9 -8 -7 -6 -6 -6 -3 -0 0 0 -0 5 6 6 5 6 8 9 9 10 10 11 12 12 12 12 12 11 10
-11 -10 -9 -9 -8 -7 -7 -6 -6 -5 -3 -0 1 1 3 5 3 5 5 4 5 7 8 9 10 10 10 10 10 10 10 10

GFSFLT1_850_dewp_225.txt.gz
Dewpoint
2 3 3 3 3 3 3 4 10 12 13 14 15 15 15 14 13 13 13 14 14 14 14 13 12 9 6 3 -1 -4 1 8
2 2 2 3 3 3 3 5 11 13 12 14 15 15 15 15 14 14 13 14 14 14 14 13 12 11 8 5 3 3 8 9
1 1 2 3 3 3 3 5 7 10 12 13 12 14 14 14 15 15 14 14 14 14 14 13 13 12 11 7 6 7 8 9
1 1 1 2 3 3 3 7 7 11 11 12 14 14 14 15 14 15 15 15 14 14 14 14 13 12 12 10 7 7 8 9
1 1 2 2 3 3 3 5 9 10 12 11 12 14 15 14 14 13 14 14 13 14 14 14 14 12 12 12 9 7 9 9
1 1 1 3 3 3 3 5 9 11 11 11 12 12 13 13 14 14 14 14 13 13 14 14 14 13 12 12 11 8 9 8
5 4 5 8 8 8 7 7 10 12 11 12 12 12 11 12 13 15 14 14 14 14 13 14 13 13 13 12 12 11 8 9
7 7 8 9 9 9 8 8 8 8 8 11 12 12 12 12 12 13 14 15 14 13 13 13 13 13 12 12 12 11 10 9
3 3 4 5 7 8 8 9 8 7 8 8 8 9 12 12 12 12 11 11 12 12 12 13 13 12 13 13 12 12 12 10
-1 1 2 3 4 6 7 6 7 8 9 8 9 10 10 12 12 12 12 12 12 12 12 12 13 13 13 12 13 12 11 11
-2 -1 -1 -1 -0 1 3 5 6 7 8 10 10 12 12 12 13 13 13 12 12 12 12 12 13 13 13 13 13 13 12 11
1 -1 -3 -3 -3 -6 -7 -7 -6 -2 1 6 9 10 10 11 12 13 13 13 13 13 12 12 12 12 12 13 13 13 13 12
1 3 2 1 -1 -1 -3 -3 -7 -12 -12 -11 -6 2 7 9 9 10 11 13 12 13 12 12 12 12 12 12 13 12 12 12
3 3 3 2 -1 -4 -2 -1 -2 -3 -3 -12 -14 -13 -9 -2 2 2 6 10 11 12 12 12 12 12 12 12 12 12 12 12
1 -1 -3 -3 -5 -8 -7 -7 -9 -6 -5 -2 -3 -9 -11 -11 -8 -5 -3 -1 3 7 9 11 12 12 12 12 12 12 12 12
-2 -4 -6 -5 -7 -8 -7 -7 -9 -5 -6 -7 -5 -3 -4 -8 -7 -8 -7 -4 -3 0 4 6 10 11 12 12 12 12 12 12
-7 -7 -8 -8 -9 -9 -8 -8 -9 -9 -10 -13 -11 -6 -7 -7 -4 -6 -7 -8 -6 -6 1 4 5 8 11 11 11 11 11 12
-9 -10 -10 -10 -10 -9 -8 -8 -9 -9 -9 -9 -10 -8 -9 -13 -14 -5 -4 -6 -9 -9 -4 3 6 7 8 10 11 11 11 11
-9 -9 -9 -10 -10 -10 -9 -9 -9 -9 -9 -9 -9 -9 -9 -9 -12 -12 -10 -7 -7 -6 -9 -2 4 5 7 9 10 10 11 10

GFSFLT1_850_dewp_231.txt.gz
Dewpoint
2 2 2 1 1 2 3 3 4 5 5 8 10 11 14 13 14 12 11 11 12 12 11 10 9 8 9 6 2 -6 -8 -3
2 2 2 2 3 3 3 3 4 6 9 14 12 13 15 14 14 14 14 12 11 12 12 11 10 9 9 10 4 -2 -6 -1
3 3 3 3 3 2 3 3 4 5 9 11 11 9 11 10 14 15 15 15 13 12 11 12 11 10 9 10 8 2 -4 -3
4 4 4 3 3 2 3 2 4 4 6 8 13 13 13 15 14 15 15 15 14 14 13 13 12 11 10 10 10 5 -1 -2
4 4 4 3 2 2 2 2 4 4 7 11 14 14 15 15 13 13 15 15 14 13 14 13 13 12 11 11 11 8 3 -3
5 4 3 2 2 2 2 4 3 4 7 9 12 15 15 15 13 13 14 15 14 14 15 14 13 13 13 12 12 11 7 1
5 4 3 3 2 2 2 4 6 10 12 11 13 13 13 14 14 15 14 15 14 15 15 15 14 13 14 14 13 13 10 5
5 5 5 6 5 4 3 8 12 13 14 15 15 12 10 10 11 14 15 14 15 15 15 14 14 14 14 14 13 12 12 11
2 4 6 8 10 10 8 14 14 14 14 14 13 11 9 10 10 10 11 14 14 14 13 13 14 14 14 14 14 12 12 12
-1 0 3 5 8 10 11 12 13 14 14 13 11 11 11 11 10 11 12 12 9 11 14 13 13 14 14 14 14 13 12 12
-1 -2 -2 -2 -2 2 8 9 10 11 12 13 13 12 11 11 11 12 12 11 11 10 12 14 14 13 13 14 14 13 14 13
-1 -4 -4 -4 -3 -4 -4 -2 3 8 10 11 12 12 13 12 11 13 12 13 13 12 11 12 12 12 13 13 13 13 14 13
2 -1 -4 -5 -6 -6 -5 -4 -5 -6 -6 3 8 10 11 12 12 12 12 12 12 13 13 12 11 9 10 13 13 13 13 13
1 1 -1 -2 -3 -5 -6 -8 -9 -6 -4 -6 -7 -4 1 7 9 9 10 11 11 11 12 12 13 11 11 12 13 12 12 13
0 0 -1 -0 -1 -3 -2 -4 -7 -9 -12 -11 -4 -5 -8 -5 0 1 -0 1 2 4 5 9 9 11 11 12 12 10 10 11
-0 -1 -2 -2 -3 -3 -4 -3 -1 -1 -6 -8 -9 -6 -8 -7 -5 -3 -2 -1 -4 -5 -7 -5 1 6 10 11 11 12 10 10
-3 -4 -4 -4 -4 -4 -4 -4 -3 -5 -5 -5 -6 -8 -8 -11 -13 -13 -13 -8 -3 -2 -2 -5 -7 0 4 6 10 11 11 10
-6 -6 -6 -4 -3 -4 -5 -5 -5 -4 -4 -5 -5 -7 -8 -8 -10 -11 -10 -10 -11 -10 -6 -5 -3 -8 -3 3 5 8 10 11
-6 -6 -6 -5 -5 -4 -4 -4 -6 -6 -5 -5 -6 -7 -7 -7 -8 -9 -11 -11 -10 -9 -10 -12 -10 -7 -5 -7 -1 3 5 6

GFSFLT1_850_dewp_234.txt.gz
Dewpoint
2 2 2 2 2 2 3 2 3 3 4 7 9 12 11 13 12 10 10 10 9 9 9 8 7 7 8 6 -0 -6 -4 -3
2 2 2 3 3 2 2 2 3 3 6 10 11 13 15 13 15 12 11 11 11 10 10 10 9 8 7 8 5 -2 -3 0
3 3 3 2 3 3 3 3 3 3 5 4 10 10 10 11 11 13 14 14 12 12 12 11 11 10 8 8 8 3 -3 -2
3 3 3 3 3 3 3 3 4 3 4 8 13 14 13 14 14 14 14 13 12 12 12 12 12 11 10 9 9 8 0 -2
4 4 4 4 4 3 3 3 4 4 5 8 14 14 14 14 14 14 14 15 14 14 14 13 12 13 12 10 9 9 6 -0
4 4 4 4 4 4 4 3 3 4 8 7 12 14 14 14 13 13 12 14 14 14 14 14 13 13 13 12 10 10 9 6
5 5 5 5 5 4 3 2 2 7 10 9 11 12 14 14 15 14 15 14 14 15 14 14 14 14 13 13 12 10 10 10
4 5 6 6 5 4 3 2 4 9 10 12 13 14 14 14 14 14 15 14 14 14 14 14 14 14 14 14 13 12 11 11
2 4 5 7 8 7 4 6 9 10 13 11 13 14 14 14 14 14 14 14 15 14 14 14 14 13 14 14 14 13 13 12
-2 -1 2 6 8 9 11 13 13 13 14 14 14 14 14 14 14 12 13 14 14 13 14 14 14 14 13 13 13 13 13 13
-1 -1 -1 -1 2 6 9 11 13 14 14 14 14 14 14 13 12 11 10 10 10 11 14 13 14 13 13 14 13 13 13 13
1 -0 -1 -2 -3 -2 -2 3 9 10 12 13 13 13 13 14 13 12 11 11 12 12 9 9 10 11 13 13 13 13 13 13
0 1 -0 -2 -3 -5 -6 -5 -2 1 5 7 9 11 12 12 13 13 11 12 12 13 12 11 13 12 11 12 12 13 13 12
0 0 0 1 0 -1 -2 -5 -5 -5 -1 -1 1 4 6 7 9 9 11 13 13 13 13 13 13 12 12 12 10 11 11 11
-1 -0 -0 -0 -0 0 -1 -1 -0 -4 -7 -6 -5 -4 -2 -0 3 4 4 5 8 10 11 11 11 11 12 12 11 10 11 9
-1 -1 -1 -1 -1 -1 -1 -2 -2 -2 -0 -3 -7 -6 -5 -4 -3 -5 -1 -0 -0 -1 -1 5 4 6 10 11 10 10 11 10
-2 -1 -1 -1 -1 -1 -1 -1 -1 -3 -6 -3 -0 -0 -7 -7 -6 -5 -6 -8 -6 -2 -1 -6 -4 -2 1 6 10 11 11 11
-4 -3 -2 -2 -1 -1 -2 -2 -1 -1 -2 -3 -4 -6 -3 -2 -6 -9 -9 -7 -8 -11 -12 -9 -5 -5 -5 -1 3 6 9 11
-6 -6 -8 -8 -5 -3 -2 -2 -2 -3 -2 -2 -2 -3 -4 -5 -5 -6 -7 -9 -8 -8 -10 -11 -12 -13 -10 -6 -6 -3 3 6

GFSFLT1_850_dewp_237.txt.gz
Dewpoint
2 1 1 1 2 2 2 2 2 6 8 8 10 10 12 11 10 9 7 7 7 6 4 4 4 3 2 -1 -5 -5 -0 -1
3 2 2 2 2 2 3 3 3 3 8 11 10 11 12 13 12 10 9 8 8 8 7 7 6 5 5 5 -1 -4 -0 1
3 3 3 2 2 2 2 3 3 3 3 5 9 9 7 8 12 12 10 10 10 13 11 9 8 7 7 6 7 0 -1 -1
3 4 3 3 2 2 3 3 3 3 3 3 7 11 13 14 15 14 12 12 11 12 13 10 9 10 8 7 7 5 0 -1
3 4 4 3 3 3 3 3 3 3 3 4 6 9 14 13 14 14 14 13 13 13 12 12 11 11 10 9 8 8 3 1
3 4 4 4 4 4 3 3 3 3 3 6 8 12 11 9 14 14 14 14 13 13 13 13 13 13 12 10 10 8 8 6
4 5 5 5 5 4 4 4 4 4 4 5 10 12 12 13 13 14 14 14 14 14 14 13 13 13 12 12 12 9 9 8
2 3 5 6 6 5 4 4 4 4 4 5 11 12 12 12 14 14 14 14 14 14 14 14 14 14 13 13 13 12 10 9
0 1 2 5 7 7 6 5 4 7 7 11 12 13 13 13 14 14 14 14 13 13 14 14 14 14 14 13 13 13 13 11
0 -0 0 2 4 7 10 11 12 13 13 12 13 13 13 13 14 13 14 14 14 14 13 12 13 14 14 13 13 13 13 13
1 1 0 -0 0 2 6 8 11 12 13 14 14 13 14 13 14 13 14 14 14 14 13 13 13 12 13 13 13 13 13 13
-0 0 0 0 0 -0 1 4 6 9 10 12 13 14 14 14 14 14 13 14 14 14 14 13 14 13 13 13 13 13 13 13
-0 -0 -0 0 0 0 -1 -1 -1 1 4 7 8 10 10 13 14 13 13 14 14 13 12 13 13 12 13 11 10 11 12 12
-1 -0 -0 -1 -0 0 0 -0 -2 -1 -2 -1 1 3 5 6 8 9 11 12 13 13 13 12 12 12 10 11 11 11 12 12
-1 -0 -0 -1 -1 -1 -0 0 0 -0 -1 -2 -2 -2 -2 -0 2 3 5 8 8 9 12 11 12 12 12 11 10 12 12 12
-0 -1 -1 -1 -1 -1 -1 -2 -3 -1 -1 -0 -1 -2 -3 -3 -3 -3 -1 1 2 3 2 5 8 10 11 11 11 11 11 11
-2 -1 -1 -1 -1 -1 -1 -1 -1 -3 -4 -5 -3 -1 -0 -1 -3 -4 -6 -6 -4 1 2 1 0 4 7 10 10 11 11 11
-2 -2 -2 -2 -2 -1 -1 -1 -1 -1 -2 -2 -4 -3 -4 -2 -1 -1 -1 -2 -4 -5 -4 -5 -4 -6 -2 3 5 9 10 10
-4 -4 -3 -3 -4 -5 -3 -5 -3 -3 -4 -3 -3 -6 -4 -5 -4 -3 -3 -4 -2 -2 -4 -7 -7 -9 -12 -11 -7 -2 2 6

GFSFLT1_850_dewp_240.txt.gz
Dewpoint
1 1 1 2 2 3 4 8 15 14 8 9 9 12 14 12 14 13 13 11 11 2 9 9 -0 -2 -2 -4 -6 -1 9 9
2 2 2 2 3 3 2 4 13 15 15 13 11 11 12 12 12 14 13 13 12 10 11 11 3 -1 -2 -3 -6 -5 4 9
1 2 3 3 2 4 3 3 10 14 15 14 9 7 7 6 4 13 14 13 12 12 11 8 4 2 1 -1 1 -1 6 8
-4 -1 2 3 3 4 4 4 7 13 14 14 14 14 13 12 12 14 14 14 13 12 12 8 4 4 4 3 5 6 5 6
-8 -4 -1 0 2 4 5 5 6 12 14 13 14 14 14 13 10 8 12 14 14 13 13 10 8 6 5 5 8 6 4 2
3 2 1 0 2 3 5 5 5 9 13 12 13 13 13 13 13 13 14 14 14 14 13 12 10 8 9 9 11 6 6 7
4 5 5 6 7 7 6 6 5 7 12 10 13 13 14 13 14 14 14 14 14 14 14 13 12 11 9 10 10 9 7 7
2 3 5 6 7 8 9 7 6 6 8 8 7 10 11 12 12 13 14 14 14 14 14 13 13 13 12 10 10 9 8 7
1 1 1 2 4 6 7 9 7 6 7 8 9 10 11 12 12 13 14 14 14 14 14 14 13 13 13 13 12 11 10 9
-0 1 1 1 2 4 6 9 10 8 8 8 8 10 12 12 13 13 14 14 13 14 14 14 14 13 13 13 13 13 12 11
-1 -1 -0 0 1 1 3 6 8 10 11 12 12 12 13 12 12 13 13 13 13 14 14 14 14 13 12 13 13 13 13 12
-1 -0 -1 -1 0 0 0 1 4 7 7 9 11 12 13 13 13 13 13 13 14 14 13 14 14 14 13 13 13 13 13 12
-1 -1 -0 -0 -0 -0 -0 0 0 1 1 5 5 7 9 10 11 13 13 14 13 13 13 13 13 13 13 13 13 13 13 13
-1 -1 -1 -1 -1 -1 -0 -0 0 0 -0 0 1 3 4 5 6 8 11 12 13 13 14 13 13 13 13 13 13 13 13 13
-1 -1 -1 -1 -1 -1 -1 -1 -1 -1 0 1 0 -0 -0 -0 1 3 6 7 9 10 12 13 13 13 13 12 13 13 13 13
-2 -1 -2 -2 -2 -1 -2 -2 -2 -2 -3 -2 -1 -0 1 0 -1 -2 -0 2 4 5 6 10 10 11 11 12 12 12 12 11
-4 -3 -2 -3 -3 -3 -2 -2 -3 -3 -5 -6 -4 -2 -2 -2 -1 -0 -0 -2 -2 0 2 5 8 10 9 8 8 11 11 11
-5 -4 -4 -2 -3 -3 -3 -3 -3 -6 -4 -9 -7 -9 -7 -4 -5 -4 -4 -1 0 -3 -3 -1 1 3 7 7 9 10 8 11
-4 -4 -3 -3 -3 -3 -3 -3 -4 -4 -5 -3 -4 -7 -8 -10 -10 -7 -8 -5 -5 -1 1 -1 -4 -3 -0 1 5 5 8 9

GFSFLT1_850_dewp_243.txt.gz
Dewpoint
-2 -0 -0 1 1 2 2 3 10 14 14 15 13 14 15 14 14 14 12 13 13 13 13 13 12 4 5 9 10 11 10 10
-9 -4 -0 0 0 1 3 3 5 11 15 15 16 14 15 15 14 14 14 11 12 13 13 13 12 6 1 4 10 10 10 10
-11 -12 -9 -3 1 1 2 3 3 10 13 14 15 13 14 14 14 14 14 13 11 12 12 13 12 11 6 6 7 7 10 9
-10 -11 -11 -3 1 2 2 3 3 4 13 14 14 15 15 15 15 14 14 14 12 11 12 13 12 12 8 4 4 3 1 4
-0 -1 -7 -10 -2 1 3 3 4 4 12 13 13 14 14 15 15 14 14 14 14 12 12 13 13 12 11 6 5 1 1 3
4 4 5 6 -6 -4 -1 3 4 4 5 12 13 13 14 15 14 13 14 14 13 14 13 13 13 13 11 7 4 0 -1 3
2 2 3 4 6 7 7 3 2 5 5 11 12 13 14 14 15 15 14 15 15 14 14 14 13 13 12 10 4 2 3 5
0 0 1 1 3 5 9 9 6 4 6 11 12 13 13 13 13 15 14 14 14 14 14 14 14 13 13 12 8 5 5 7
-1 -1 -0 0 1 3 6 9 9 8 7 7 12 11 12 12 13 13 14 14 13 13 14 14 14 13 13 13 11 7 7 9
-1 -1 -1 -1 -0 1 2 7 8 8 8 8 10 11 11 10 10 11 12 13 13 11 11 13 14 13 13 13 12 10 9 10
-2 -1 -1 -1 -1 -0 0 2 5 7 9 9 9 10 12 12 11 11 12 11 12 13 13 13 13 13 13 13 13 12 10 9
-1 -1 -1 -1 -1 -1 -1 -0 1 4 5 7 9 11 11 11 12 13 13 13 13 13 14 13 14 13 13 13 13 12 12 12
-2 -2 -2 -2 -1 -1 -1 -0 -0 0 1 2 4 5 8 10 11 12 13 13 13 13 14 14 14 13 13 13 13 13 13 12
-2 -2 -3 -2 -1 -2 -1 -1 -1 -1 0 1 1 1 3 4 5 6 8 11 13 13 14 13 13 13 13 13 13 13 13 13
-3 -2 -2 -3 -3 -3 -2 -2 -2 -3 -3 -2 -1 0 1 1 1 2 4 5 7 11 12 13 13 13 13 13 13 13 13 13
-5 -3 -2 -2 -2 -3 -3 -3 -3 -4 -6 -6 -4 -2 -1 -1 0 1 1 1 2 4 7 10 12 13 12 12 12 13 13 13
-4 -4 -3 -2 -3 -3 -3 -3 -3 -3 -4 -6 -7 -9 -6 -2 -3 -1 -0 0 1 0 1 4 6 7 8 10 12 12 11 12
-5 -4 -4 -3 -3 -3 -3 -3 -3 -3 -3 -3 -5 -4 -7 -8 -6 -7 -6 -3 -1 0 0 -1 1 3 5 6 9 10 11 11
-5 -5 -5 -4 -3 -3 -3 -4 -3 -4 -4 -3 -4 -3 -3 -4 -6 -9 -8 -7 -7 -3 -2 1 -0 -1 -1 1 2 8 9 9